Starlink 30767

operational
NORAD ID: 58126 Int'l Des: 2023-162 Owner: SPXS Country: US Constellation: starlink
LEOCIRCULAR

About Starlink 30767

Description loading...

Live Position

Loading 3D Globe...

Upcoming Passes

Altitude History

Altitude vs Time

uPlot chart will show altitude changes over time

Two-Line Element Set

1 58126U 23162J 25350.34183699 .00003200 00000-0 25178-3 0 9995
2 58126 43.0022 225.8687 0001239 260.0517 100.0186 15.02549549119763
Epoch: Dec 16, 2025 • Age: 21 hours

Current Status

Altitude 566.1 km
Velocity 7.58 km/s
Sub-Earth Point -28.84°S, 27.98°E
Launch Date Oct 22, 2023
Age 2.1 years
Type internet

Technical Details

Classification Payload
Mass 730.00 kg
Dry Mass 700.00 kg
Total Mass 730.00 kg
Length 0.30 m
Diameter 4.10 m
Span 29.00 m
Shape Box + pan
Manufacturer SPXS
Bus Type Starlink V2M
Phase Status In Orbit
Owner/State SPXS/US

Large Constellations

Loading constellations...